Regional Weather Roundup
Issued by NWS Upton, NY

Home | Current Version | Previous Version | Text Only | Print | Product List | Glossary On
Versions: 1 2 3 4 5 6 7 8 9 10 11 12 13 14 15 16 17 18 19 20 21 22 23 24 25 26 27 28 29 30 31 32 33 34 35 36 37 38 39 40 41 42 43 44 45 46 47 48 49 50
000
ASUS41 KOKX 210507
RWROKX

REGIONAL WEATHER ROUNDUP
NATIONAL WEATHER SERVICE NEW YORK NY
100 AM EDT TUE APR 21 2015

NOTE: "FAIR" INDICATES FEW OR NO CLOUDS BELOW 12,000 FEET WITH NO
SIGNIFICANT WEATHER AND/OR OBSTRUCTIONS TO VISIBILITY.

NYZ071-072-176-178-NJZ106-104-210600-
NEW YORK CITY METRO AREA


CITY           SKY/WX    TMP DP  RH WIND       PRES   REMARKS
CENTRAL PARK   CLOUDY    52  52 100 VRB3      29.60F FOG
LAGUARDIA APRT TSTM      53  52  96 SE7       29.57F VSB 1
KENNEDY INTL   TSTM      54  52  93 SE14G24   29.58F FOG
NEWARK/LIBERTY FOG       53  52  96 E7        29.58S THUNDER VSB 1/2
BRNX BOT. GARD   N/A     50  50 100 N3        29.57F
TETERBORO      CLOUDY    53  52  96 E7        29.56F FOG
$$

NYZ177-179-078>081-210600-
LONG ISLAND NEW YORK

CITY           SKY/WX    TMP DP  RH WIND       PRES   REMARKS
FARMINGDALE    CLOUDY    54  53  97 SE8       29.58F THUNDER
ISLIP          FOG       53  52  96 SE9       29.57F VSB 1/2
SHIRLEY        FOG       52  51  97 SE5       29.61F VSB 1/2
WESTHAMPTON    FOG       55  54  96 S8        29.63F VSB 1/2
MONTAUK POINT    N/A     50  49  96 S6        29.66F
$$

NYZ052-065-067-210600-
HUDSON VALLEY

CITY           SKY/WX    TMP DP  RH WIND       PRES   REMARKS
WHITE PLAINS   TSTM      54  53  97 E8        29.55F VSB 1/4
NEWBURGH       RAIN      54  54 100 MISG      29.58F
MONTGOMERY     HVY RAIN  53 N/A N/A NE8       29.54F
POUGHKEEPSIE   CLOUDY    56  52  86 E5        29.53F
ALBANY         CLOUDY    52  46  80 N6        29.59F
$$

NJZ001-105-106-008-010-013-015-019>022-104-210600-
NEW JERSEY

CITY           SKY/WX    TMP DP  RH WIND       PRES   REMARKS
NEWARK/LIBERTY FOG       53  52  96 E7        29.58S THUNDER VSB 1/2
TETERBORO      CLOUDY    53  52  96 E7        29.56F FOG
CALDWELL       CLOUDY    54  54 100 E6        29.56F FOG
MORRISTOWN     CLOUDY    57  54  88 CALM      29.57S FOG
SOMERVILLE     CLOUDY    57  54  89 NW5       29.55R FOG
SUSSEX         LGT RAIN  54  53  97 NW5       29.58R
ANDOVER          N/A     55  54  96 VRB5      29.59R
TRENTON        CLOUDY    65  57  75 W10G17    29.54S
MILLVILLE      CLOUDY    60  58  92 S3        29.57F
ATLANTIC CITY  CLOUDY    63  57  81 SW5       29.59R
WRIGHTSTOWN    LGT RAIN  63  59  88 S7        29.53S
TOMS RIVER     CLOUDY    63  57  82 S7        29.59R
BELMAR         CLOUDY    61  54  77 S9G18     29.57R
$$

PAZ047>061-062-071-210600-
EASTERN PENNSYLVANIA

CITY           SKY/WX    TMP DP  RH WIND       PRES   REMARKS
PHILADELPHIA   LGT RAIN  61  56  83 S7        29.54F
ALLENTOWN      LGT RAIN  57  53  86 CALM      29.59R
SCRANTON       LGT RAIN  55  52  89 MISG      29.58F
$$

CTZ002-004>006-009-010-012-RIZ004-006-007-MAZ004-011-015-210600-
SOUTHERN NEW ENGLAND
 IN CT

CITY           SKY/WX    TMP DP  RH WIND       PRES   REMARKS
BRADLEY INTL   DRIZZLE   50  48  93 N3        29.64F FOG
HARTFORD       LGT RAIN  52  50  93 VRB5      29.63F FOG
DANBURY        FOG       53  52  96 NE8       29.58F VSB 1
WTRBRY/OXFORD  CLOUDY    54  48  82 E8        29.61F VSB 1/2
BRIDGEPORT     FOG       50  49  96 E14       29.59F VSB 1/4
MERIDEN        CLOUDY    54  52  93 CALM      29.62F
NEW HAVEN      FOG       53  52  96 E6        29.60F VSB 1/2
CHESTER        FOG       52  52 100 CALM      29.64F VSB 1/4
GROTON         LGT RAIN  50  50 100 E5        29.65F VSB 3/4
WILLIMANTIC    LGT RAIN  56  54  93 VRB3      29.65F FOG

 IN RI

CITY           SKY/WX    TMP DP  RH WIND       PRES   REMARKS
PROVIDENCE     FOG       52  52 100 S15       29.69F VSB 3/4
BLOCK ISLAND   CLOUDY    48  46  93 S13G20    29.67S VSB 1/2
WESTERLY       FOG       50  50 100 SE14G22   29.67F VSB 1/4

 IN MA

CITY           SKY/WX    TMP DP  RH WIND       PRES   REMARKS
BOSTON         LGT RAIN  51  51 100 SE15      29.69F FOG
WORCESTER      FOG       48  47  96 NE5       29.67F VSB 1/4
WESTFIELD      LGT RAIN  49  46  90 N8        29.65F FOG
PROVINCETOWN   CLOUDY   N/A N/A N/A SE23G36   29.72F
NANTUCKET      LGT RAIN  54  53  97 SE21G26   29.72F FOG
$$

ANZ330-335-338-340-345-350-353-355-210600-
COASTAL MARINE OBSERVATIONS


STATION/POSITION TIME  SKY/WX   TEMP    WIND        PRES    VSBY  WAVE
                                AIR SEA DIR/SP/G                  HT/PER
                 (UTC)          (F)     (DEG/KT/KT) (MB)    (MI)  (FT/S)
NY HARB ENTRANCE 0450            48 44  170/ 14/ 17 1000.5          7/11
4S FIRE IS       0403               43                N/A           9/11
20S FIRE ISLAND  0350               43              1003.1         10/11
23SW MTP         NOT AVBL
HUDSON CANYON    NOT AVBL
EXECUTION ROCKS  NOT AVBL
WESTERN LI SOUND NOT AVBL
CENTRAL LI SOUND NOT AVBL
EASTERN LI SOUND 0400            45     130/  8/ 10   N/A
ROBBINS REEF     0400            51     110/ 10/ 12 1000.6
$$


>>>>>>>>>>>>>>>>>>>>>>>>>>>> KEY <<<<<<<<<<<<<<<<<<<<<<<<<<<
>                                                          <
>     SKY/WX - SKY CONDITION/PRESENT WEATHER               <
>     TMP    - TEMPERATURE IN FAHRENHEIT                   <
>     DP     - DEWPOINT IN FAHRENHEIT                      <
>     RH     - RELATIVE HUMIDITY IN PERCENT                <
>     WIND   - DIRECTION AND SPEED IN MPH                  <
>     PRES   - MEAN SEA LEVEL PRESSURE IN INCHES OF HG     <
>     WCI    - WIND CHILL INDEX                            <
>     VSB    - VISIBILITY IN MILES                         <
>     HX     - HEAT INDEX                                  <
>     TC     - TEMPERATURE IN CELSIUS                      <
>     VRB    - VARIABLE WIND DIRECTION                     <
>                                                          <
>>>>>>>>>>>>>>>>>>>>>>>>>>>> KEY <<<<<<<<<<<<<<<<<<<<<<<<<<<




USA.gov is the U.S. government's official web portal to all federal, state and local government web resources and services.